Terug naar catalogus

STARLINK-3701

ActiefCommunicatieVLEO
NORAD 52095·PAYLOAD·🇺🇸 United States

Gelanceerd Mar 19, 2022 vanaf Cape Canaveral Space Force Station

Loading…

Volgende Passages (komende 24 uur)

TLE

VersSource: CelesTrak SupGP

Epoch: Sep 15, 2026, 01:39 UTC

1 52095C 22029H   26258.06923611  .00028061  00000+0  82865-3 0  2583
2 52095  53.1586 303.0454 0001276  92.6983 319.1720 15.34392706    17

Volg STARLINK-3701 in realtime met AllMySat

Download on the App Store